Location: Cz?stochówka
(50.8142°N, 19.0915°E)
Time: 08:34:19
(UTC+00:00)

Cosmos 1408 Rocket - Pass Details

Date: 13 January 2026
Orbit: 594 x 623 km, 82.6° (Epoch: 17 February)

Event Time Altitude Azimuth Distance (km) Brightness Sun altitude
Rises 04:12:56 0° 176° (S) 2,865 7.1 -22.6°
Reaches altitude 10° 04:15:11 10° 171° (S) 1,961 6.3 -22.2°
Maximum altitude 04:19:24 53° 95° (E) 747 4.3 -21.6°
Drops below altitude 10° 04:23:37 10° 19° (NNE) 1,959 6.2 -20.9°
Sets 04:25:52 0° 14° (NNE) 2,863 7.0 -20.6°
